User: anonymous   Login
Location: Unspecified
(0.0000°N, 0.0000°E)
Time: 23:03:38
(UTC+01:00)
Language:

Cosmos 1943 Rocket - Orbit

View from above orbital plane
View from above orbital plane
View from above satellite
View from above satellite

Ground track
Ground track

The orbit data is extracted from the following two-line orbital elements,

1 19120U 88039B   17081.67730676 -.00000185 +00000-0 -65160-4 0  9998
2 19120 071.0146 147.7156 0023432 316.3059 043.6210 14.19167273494112
Epoch (UTC): 22 March 2017 16:15:19
Eccentricity: 0.0023432
inclination: 71.0146°
perigee height: 811 km
apogee height: 845 km
right ascension of ascending node: 147.7156°
argument of perigee: 316.3059°
revolutions per day: 14.19167273
mean anomaly at epoch: 43.6210°
orbit number at epoch: 49411

The dashed part of the orbit path shows where the satellite is in the earth's shadow,  

DLR